Time,TemperatureF,DewpointF,PressureIn,WindDirection,WindDirectionDegrees,WindSpeedMPH,WindSpeedGustMPH,Humidity,HourlyPrecipIn,Conditions,Clouds,dailyrainin,SoftwareType,DateUTC
2013-01-09 00:02:00,31.0,26.0,-100.00,WNW,285,24.0,37.0,81,-99.99,,,-99.99,,2013-01-09 06:02:00,
2013-01-09 00:12:00,31.0,26.0,-100.00,WNW,285,24.0,37.0,81,-99.99,,,-99.99,,2013-01-09 06:12:00,
2013-01-09 00:22:00,31.0,26.0,-100.00,WNW,285,24.0,37.0,81,-99.99,,,-99.99,,2013-01-09 06:22:00,
2013-01-09 00:32:00,31.0,26.0,-100.00,West,275,28.0,41.0,81,-99.99,,,-99.99,,2013-01-09 06:32:00,
2013-01-09 00:42:00,31.0,26.0,-100.00,West,275,28.0,41.0,81,-99.99,,,-99.99,,2013-01-09 06:42:00,
2013-01-09 00:52:00,31.0,26.0,-100.00,West,275,28.0,41.0,81,-99.99,,,-99.99,,2013-01-09 06:52:00,
2013-01-09 01:02:00,30.0,26.0,-100.00,West,275,30.0,43.0,82,-99.99,,,-99.99,,2013-01-09 07:02:00,
2013-01-09 01:12:00,30.0,26.0,-100.00,West,275,30.0,43.0,82,-99.99,,,-99.99,,2013-01-09 07:12:00,
2013-01-09 01:22:00,30.0,26.0,-100.00,West,275,30.0,43.0,82,-99.99,,,-99.99,,2013-01-09 07:22:00,
2013-01-09 01:32:00,30.0,25.0,-100.00,West,280,24.0,36.0,82,-99.99,,,-99.99,,2013-01-09 07:32:00,
2013-01-09 01:42:00,30.0,25.0,-100.00,West,280,24.0,36.0,82,-99.99,,,-99.99,,2013-01-09 07:42:00,
2013-01-09 01:52:00,30.0,25.0,-100.00,West,280,24.0,36.0,82,-99.99,,,-99.99,,2013-01-09 07:52:00,
2013-01-09 02:02:00,30.0,24.0,-100.00,WNW,285,28.0,37.0,81,-99.99,,,-99.99,,2013-01-09 08:02:00,
2013-01-09 02:12:00,30.0,24.0,-100.00,WNW,285,28.0,37.0,81,-99.99,,,-99.99,,2013-01-09 08:12:00,
2013-01-09 02:22:00,30.0,24.0,-100.00,WNW,285,28.0,37.0,81,-99.99,,,-99.99,,2013-01-09 08:22:00,
2013-01-09 02:32:00,28.0,24.0,-100.00,WNW,285,27.0,42.0,82,-99.99,,,-99.99,,2013-01-09 08:32:00,
2013-01-09 02:43:00,28.0,24.0,-100.00,WNW,285,27.0,42.0,82,-99.99,,,-99.99,,2013-01-09 08:43:00,
2013-01-09 02:53:00,28.0,24.0,-100.00,WNW,285,27.0,42.0,82,-99.99,,,-99.99,,2013-01-09 08:53:00,
2013-01-09 03:02:00,28.0,23.0,-100.00,WNW,290,29.0,40.0,81,-99.99,,,-99.99,,2013-01-09 09:02:00,
2013-01-09 03:12:00,28.0,23.0,-100.00,WNW,290,29.0,40.0,81,-99.99,,,-99.99,,2013-01-09 09:12:00,
2013-01-09 03:22:00,28.0,23.0,-100.00,WNW,290,29.0,40.0,81,-99.99,,,-99.99,,2013-01-09 09:22:00,
2013-01-09 03:32:00,28.0,23.0,-100.00,WNW,290,29.0,40.0,81,-99.99,,,-99.99,,2013-01-09 09:32:00,
2013-01-09 04:02:00,26.0,21.0,-100.00,WNW,290,22.0,30.0,83,-99.99,,,-99.99,,2013-01-09 10:02:00,
2013-01-09 04:12:00,26.0,21.0,-100.00,WNW,290,22.0,30.0,83,-99.99,,,-99.99,,2013-01-09 10:12:00,
2013-01-09 04:22:00,26.0,21.0,-100.00,WNW,290,22.0,30.0,83,-99.99,,,-99.99,,2013-01-09 10:22:00,
2013-01-09 04:32:00,25.0,20.0,-100.00,WNW,290,22.0,32.0,82,-99.99,,,-99.99,,2013-01-09 10:32:00,
2013-01-09 04:42:00,25.0,20.0,-100.00,WNW,290,22.0,32.0,82,-99.99,,,-99.99,,2013-01-09 10:42:00,
2013-01-09 04:52:00,25.0,20.0,-100.00,WNW,290,22.0,32.0,82,-99.99,,,-99.99,,2013-01-09 10:52:00,
2013-01-09 05:02:00,24.0,18.0,-100.00,WNW,290,21.0,27.0,81,-99.99,,,-99.99,,2013-01-09 11:02:00,
2013-01-09 05:12:00,24.0,18.0,-100.00,WNW,290,21.0,27.0,81,-99.99,,,-99.99,,2013-01-09 11:12:00,
2013-01-09 05:22:00,24.0,18.0,-100.00,WNW,290,21.0,27.0,81,-99.99,,,-99.99,,2013-01-09 11:22:00,
2013-01-09 05:32:00,22.0,17.0,-100.00,WNW,300,16.0,23.0,81,-99.99,,,-99.99,,2013-01-09 11:32:00,
2013-01-09 05:42:00,22.0,17.0,-100.00,WNW,300,16.0,23.0,81,-99.99,,,-99.99,,2013-01-09 11:42:00,
2013-01-09 05:53:00,22.0,17.0,-100.00,WNW,300,16.0,23.0,81,-99.99,,,-99.99,,2013-01-09 11:53:00,
2013-01-09 06:03:00,21.0,17.0,-100.00,WNW,295,12.0,18.0,82,-99.99,,,-99.99,,2013-01-09 12:03:00,
2013-01-09 06:12:00,21.0,17.0,-100.00,WNW,295,12.0,18.0,82,-99.99,,,-99.99,,2013-01-09 12:12:00,
2013-01-09 06:23:00,21.0,17.0,-100.00,WNW,295,12.0,18.0,82,-99.99,,,-99.99,,2013-01-09 12:23:00,
2013-01-09 06:33:00,20.0,15.0,-100.00,WNW,285,11.0,15.0,83,-99.99,,,-99.99,,2013-01-09 12:33:00,
2013-01-09 06:43:00,20.0,15.0,-100.00,WNW,285,11.0,15.0,83,-99.99,,,-99.99,,2013-01-09 12:43:00,
2013-01-09 06:53:00,20.0,15.0,-100.00,WNW,285,11.0,15.0,83,-99.99,,,-99.99,,2013-01-09 12:53:00,
2013-01-09 07:02:00,21.0,17.0,-100.00,WNW,295,16.0,21.0,84,-99.99,,,-99.99,,2013-01-09 13:02:00,
2013-01-09 07:12:00,21.0,17.0,-100.00,WNW,295,16.0,21.0,84,-99.99,,,-99.99,,2013-01-09 13:12:00,
2013-01-09 07:23:00,21.0,17.0,-100.00,WNW,295,16.0,21.0,84,-99.99,,,-99.99,,2013-01-09 13:23:00,
2013-01-09 07:33:00,21.0,17.0,-100.00,WNW,290,12.0,26.0,85,-99.99,,,-99.99,,2013-01-09 13:33:00,
2013-01-09 07:43:00,21.0,17.0,-100.00,WNW,290,12.0,26.0,85,-99.99,,,-99.99,,2013-01-09 13:43:00,
2013-01-09 07:53:00,21.0,17.0,-100.00,WNW,290,12.0,26.0,85,-99.99,,,-99.99,,2013-01-09 13:53:00,
2013-01-09 08:03:00,20.0,16.0,-100.00,WNW,295,11.0,16.0,86,-99.99,,,-99.99,,2013-01-09 14:03:00,
2013-01-09 08:12:00,20.0,16.0,-100.00,WNW,295,11.0,16.0,86,-99.99,,,-99.99,,2013-01-09 14:12:00,
2013-01-09 08:22:00,20.0,16.0,-100.00,WNW,295,11.0,16.0,86,-99.99,,,-99.99,,2013-01-09 14:22:00,
2013-01-09 08:33:00,19.0,15.0,-100.00,NW,305,10.0,16.0,87,-99.99,,,-99.99,,2013-01-09 14:33:00,
2013-01-09 08:43:00,19.0,15.0,-100.00,NW,305,10.0,16.0,87,-99.99,,,-99.99,,2013-01-09 14:43:00,
2013-01-09 08:53:00,19.0,15.0,-100.00,NW,305,10.0,16.0,87,-99.99,,,-99.99,,2013-01-09 14:53:00,
2013-01-09 09:03:00,17.0,15.0,-100.00,WNW,290,8.0,10.0,89,-99.99,,,-99.99,,2013-01-09 15:03:00,
2013-01-09 09:12:00,17.0,15.0,-100.00,WNW,290,8.0,10.0,89,-99.99,,,-99.99,,2013-01-09 15:12:00,
2013-01-09 09:23:00,17.0,15.0,-100.00,WNW,290,8.0,10.0,89,-99.99,,,-99.99,,2013-01-09 15:23:00,
2013-01-09 09:33:00,17.0,15.0,-100.00,WNW,290,8.0,10.0,89,-99.99,,,-99.99,,2013-01-09 15:33:00,
2013-01-09 10:03:00,17.0,15.0,-100.00,WNW,290,9.0,11.0,90,-99.99,,,-99.99,,2013-01-09 16:03:00,
2013-01-09 10:12:00,17.0,15.0,-100.00,WNW,290,9.0,11.0,90,-99.99,,,-99.99,,2013-01-09 16:12:00,
2013-01-09 10:23:00,17.0,15.0,-100.00,WNW,290,9.0,11.0,90,-99.99,,,-99.99,,2013-01-09 16:23:00,
2013-01-09 10:33:00,21.0,17.0,-100.00,WNW,295,11.0,17.0,84,-99.99,,,-99.99,,2013-01-09 16:33:00,
2013-01-09 10:43:00,21.0,17.0,-100.00,WNW,295,11.0,17.0,84,-99.99,,,-99.99,,2013-01-09 16:43:00,
2013-01-09 10:53:00,21.0,17.0,-100.00,WNW,295,11.0,17.0,84,-99.99,,,-99.99,,2013-01-09 16:53:00,
2013-01-09 11:02:00,23.0,17.0,-100.00,West,280,12.0,17.0,78,-99.99,,,-99.99,,2013-01-09 17:02:00,
2013-01-09 11:12:00,23.0,17.0,-100.00,West,280,12.0,17.0,78,-99.99,,,-99.99,,2013-01-09 17:12:00,
2013-01-09 11:23:00,23.0,17.0,-100.00,West,280,12.0,17.0,78,-99.99,,,-99.99,,2013-01-09 17:23:00,
2013-01-09 11:32:00,23.0,17.0,-100.00,West,280,12.0,17.0,78,-99.99,,,-99.99,,2013-01-09 17:32:00,
2013-01-09 12:03:00,26.0,18.0,-100.00,WNW,295,11.0,16.0,71,-99.99,,,-99.99,,2013-01-09 18:03:00,
2013-01-09 12:12:00,26.0,18.0,-100.00,WNW,295,11.0,16.0,71,-99.99,,,-99.99,,2013-01-09 18:12:00,
2013-01-09 12:24:00,26.0,18.0,-100.00,WNW,295,11.0,16.0,71,-99.99,,,-99.99,,2013-01-09 18:24:00,
2013-01-09 12:33:00,27.0,18.0,-100.00,West,280,9.0,15.0,71,-99.99,,,-99.99,,2013-01-09 18:33:00,
2013-01-09 12:43:00,27.0,18.0,-100.00,West,280,9.0,15.0,71,-99.99,,,-99.99,,2013-01-09 18:43:00,
2013-01-09 12:53:00,27.0,18.0,-100.00,West,280,9.0,15.0,71,-99.99,,,-99.99,,2013-01-09 18:53:00,
2013-01-09 13:03:00,27.0,18.0,-100.00,WNW,300,9.0,14.0,69,-99.99,,,-99.99,,2013-01-09 19:03:00,
2013-01-09 13:13:00,27.0,18.0,-100.00,WNW,300,9.0,14.0,69,-99.99,,,-99.99,,2013-01-09 19:13:00,
2013-01-09 13:23:00,27.0,18.0,-100.00,WNW,300,9.0,14.0,69,-99.99,,,-99.99,,2013-01-09 19:23:00,
2013-01-09 13:33:00,28.0,18.0,-100.00,WNW,290,8.0,11.0,65,-99.99,,,-99.99,,2013-01-09 19:33:00,
2013-01-09 13:43:00,28.0,18.0,-100.00,WNW,290,8.0,11.0,65,-99.99,,,-99.99,,2013-01-09 19:43:00,
2013-01-09 13:53:00,28.0,18.0,-100.00,WNW,290,8.0,11.0,65,-99.99,,,-99.99,,2013-01-09 19:53:00,
2013-01-09 14:02:00,28.0,17.0,-100.00,NW,320,6.0,9.0,64,-99.99,,,-99.99,,2013-01-09 20:02:00,
2013-01-09 14:12:00,28.0,17.0,-100.00,NW,320,6.0,9.0,64,-99.99,,,-99.99,,2013-01-09 20:12:00,
2013-01-09 14:23:00,28.0,17.0,-100.00,NW,320,6.0,9.0,64,-99.99,,,-99.99,,2013-01-09 20:23:00,
2013-01-09 14:33:00,28.0,17.0,-100.00,NW,320,6.0,9.0,64,-99.99,,,-99.99,,2013-01-09 20:33:00,
2013-01-09 15:03:00,29.0,17.0,-100.00,South,185,5.0,7.0,62,-99.99,,,-99.99,,2013-01-09 21:03:00,
2013-01-09 15:13:00,29.0,17.0,-100.00,South,185,5.0,7.0,62,-99.99,,,-99.99,,2013-01-09 21:13:00,
2013-01-09 15:23:00,29.0,17.0,-100.00,South,185,5.0,7.0,62,-99.99,,,-99.99,,2013-01-09 21:23:00,
2013-01-09 15:33:00,28.0,17.0,-100.00,South,185,4.0,7.0,63,-99.99,,,-99.99,,2013-01-09 21:33:00,
2013-01-09 15:43:00,28.0,17.0,-100.00,South,185,4.0,7.0,63,-99.99,,,-99.99,,2013-01-09 21:43:00,
2013-01-09 15:53:00,28.0,17.0,-100.00,South,185,4.0,7.0,63,-99.99,,,-99.99,,2013-01-09 21:53:00,
2013-01-09 16:03:00,28.0,18.0,-100.00,South,175,6.0,13.0,67,-99.99,,,-99.99,,2013-01-09 22:03:00,
2013-01-09 16:12:00,28.0,18.0,-100.00,South,175,6.0,13.0,67,-99.99,,,-99.99,,2013-01-09 22:12:00,
2013-01-09 16:23:00,28.0,18.0,-100.00,South,175,6.0,13.0,67,-99.99,,,-99.99,,2013-01-09 22:23:00,
2013-01-09 16:33:00,28.0,19.0,-100.00,South,180,9.0,17.0,69,-99.99,,,-99.99,,2013-01-09 22:33:00,
2013-01-09 16:43:00,28.0,19.0,-100.00,South,180,9.0,17.0,69,-99.99,,,-99.99,,2013-01-09 22:43:00,
2013-01-09 16:52:00,28.0,19.0,-100.00,South,180,9.0,17.0,69,-99.99,,,-99.99,,2013-01-09 22:52:00,
2013-01-09 17:02:00,27.0,20.0,-100.00,SSE,165,14.0,21.0,74,-99.99,,,-99.99,,2013-01-09 23:02:00,
2013-01-09 17:13:00,27.0,20.0,-100.00,SSE,165,14.0,21.0,74,-99.99,,,-99.99,,2013-01-09 23:13:00,
2013-01-09 17:22:00,27.0,20.0,-100.00,SSE,165,14.0,21.0,74,-99.99,,,-99.99,,2013-01-09 23:22:00,
2013-01-09 17:33:00,26.0,20.0,-100.00,South,170,12.0,20.0,79,-99.99,,,-99.99,,2013-01-09 23:33:00,
2013-01-09 17:43:00,26.0,20.0,-100.00,South,170,12.0,20.0,79,-99.99,,,-99.99,,2013-01-09 23:43:00,
2013-01-09 17:53:00,26.0,20.0,-100.00,South,170,12.0,20.0,79,-99.99,,,-99.99,,2013-01-09 23:53:00,
2013-01-09 18:03:00,25.0,20.0,-100.00,SSE,160,11.0,17.0,82,-99.99,,,-99.99,,2013-01-10 00:03:00,
2013-01-09 18:12:00,25.0,20.0,-100.00,SSE,160,11.0,17.0,82,-99.99,,,-99.99,,2013-01-10 00:12:00,
2013-01-09 18:22:00,25.0,20.0,-100.00,SSE,160,11.0,17.0,82,-99.99,,,-99.99,,2013-01-10 00:22:00,
2013-01-09 18:32:00,25.0,20.0,-100.00,SSE,160,13.0,21.0,83,-99.99,,,-99.99,,2013-01-10 00:32:00,
2013-01-09 18:43:00,25.0,20.0,-100.00,SSE,160,13.0,21.0,83,-99.99,,,-99.99,,2013-01-10 00:43:00,
2013-01-09 18:53:00,25.0,20.0,-100.00,SSE,160,13.0,21.0,83,-99.99,,,-99.99,,2013-01-10 00:53:00,
2013-01-09 19:02:00,24.0,20.0,-100.00,SSE,155,13.0,20.0,84,-99.99,,,-99.99,,2013-01-10 01:02:00,
2013-01-09 19:12:00,24.0,20.0,-100.00,SSE,155,13.0,20.0,84,-99.99,,,-99.99,,2013-01-10 01:12:00,
2013-01-09 19:22:00,24.0,20.0,-100.00,SSE,155,13.0,20.0,84,-99.99,,,-99.99,,2013-01-10 01:22:00,
2013-01-09 19:33:00,24.0,20.0,-100.00,SE,145,11.0,19.0,83,-99.99,,,-99.99,,2013-01-10 01:33:00,
2013-01-09 19:43:00,24.0,20.0,-100.00,SE,145,11.0,19.0,83,-99.99,,,-99.99,,2013-01-10 01:43:00,
2013-01-09 19:53:00,24.0,20.0,-100.00,SE,145,11.0,19.0,83,-99.99,,,-99.99,,2013-01-10 01:53:00,
2013-01-09 20:03:00,24.0,20.0,-100.00,SSE,155,15.0,21.0,83,-99.99,,,-99.99,,2013-01-10 02:03:00,
2013-01-09 20:12:00,24.0,20.0,-100.00,SSE,155,15.0,21.0,83,-99.99,,,-99.99,,2013-01-10 02:12:00,
2013-01-09 20:22:00,24.0,20.0,-100.00,SSE,155,15.0,21.0,83,-99.99,,,-99.99,,2013-01-10 02:22:00,
2013-01-09 20:32:00,25.0,21.0,-100.00,SSE,155,15.0,24.0,84,-99.99,,,-99.99,,2013-01-10 02:32:00,
2013-01-09 20:43:00,25.0,21.0,-100.00,SSE,155,15.0,24.0,84,-99.99,,,-99.99,,2013-01-10 02:43:00,
2013-01-09 20:52:00,25.0,21.0,-100.00,SSE,155,15.0,24.0,84,-99.99,,,-99.99,,2013-01-10 02:52:00,
2013-01-09 21:02:00,25.0,21.0,-100.00,SSE,155,16.0,23.0,83,-99.99,,,-99.99,,2013-01-10 03:02:00,
2013-01-09 21:12:00,25.0,21.0,-100.00,SSE,155,16.0,23.0,83,-99.99,,,-99.99,,2013-01-10 03:12:00,
2013-01-09 21:22:00,25.0,21.0,-100.00,SSE,155,16.0,23.0,83,-99.99,,,-99.99,,2013-01-10 03:22:00,
2013-01-09 21:33:00,25.0,20.0,-100.00,SSE,160,18.0,27.0,83,-99.99,,,-99.99,,2013-01-10 03:33:00,
2013-01-09 21:43:00,25.0,20.0,-100.00,SSE,160,18.0,27.0,83,-99.99,,,-99.99,,2013-01-10 03:43:00,
2013-01-09 21:53:00,25.0,20.0,-100.00,SSE,160,18.0,27.0,83,-99.99,,,-99.99,,2013-01-10 03:53:00,
2013-01-09 22:02:00,25.0,20.0,-100.00,SSE,160,16.0,26.0,83,-99.99,,,-99.99,,2013-01-10 04:02:00,
2013-01-09 22:12:00,25.0,20.0,-100.00,SSE,160,16.0,26.0,83,-99.99,,,-99.99,,2013-01-10 04:12:00,
2013-01-09 22:22:00,25.0,20.0,-100.00,SSE,160,16.0,26.0,83,-99.99,,,-99.99,,2013-01-10 04:22:00,
2013-01-09 22:32:00,24.0,20.0,-100.00,SSE,160,15.0,22.0,83,-99.99,,,-99.99,,2013-01-10 04:32:00,
2013-01-09 22:43:00,24.0,20.0,-100.00,SSE,160,15.0,22.0,83,-99.99,,,-99.99,,2013-01-10 04:43:00,
2013-01-09 22:52:00,24.0,20.0,-100.00,SSE,160,15.0,22.0,83,-99.99,,,-99.99,,2013-01-10 04:52:00,
2013-01-09 23:03:00,25.0,20.0,-100.00,SSE,160,17.0,24.0,83,-99.99,,,-99.99,,2013-01-10 05:03:00,
2013-01-09 23:12:00,25.0,20.0,-100.00,SSE,160,17.0,24.0,83,-99.99,,,-99.99,,2013-01-10 05:12:00,
2013-01-09 23:22:00,25.0,20.0,-100.00,SSE,160,17.0,24.0,83,-99.99,,,-99.99,,2013-01-10 05:22:00,
2013-01-09 23:33:00,25.0,21.0,-100.00,SSE,160,13.0,19.0,84,-99.99,,,-99.99,,2013-01-10 05:33:00,
2013-01-09 23:43:00,25.0,21.0,-100.00,SSE,160,13.0,19.0,84,-99.99,,,-99.99,,2013-01-10 05:43:00,
2013-01-09 23:53:00,25.0,21.0,-100.00,SSE,160,13.0,19.0,84,-99.99,,,-99.99,,2013-01-10 05:53:00,